Location: *
(51.5000°N, 0.1100°W)
Time: 19:55:40
(UTC+00:00)

Cosmos 1741 Rocket - Pass Details

Date: 25 May 2024
Orbit: 758 x 781 km, 74.0° (Epoch: 16 June)

Event Time Altitude Azimuth Distance (km) Brightness Sun altitude
Exits shadow 02:19:49 15° 221° (SW) 1,992 5.5 -11.1°
Maximum altitude 02:24:09 60° 299° (WNW) 882 4.3 -10.7°
Drops below altitude 10° 02:29:23 10° 20° (NNE) 2,329 7.9 -10.2°
Sets 02:31:49 0° 24° (NNE) 3,264 9.2 -10.0°
